Weather History for Moffett NAS, CA

Change the Weather History Date:

Wednesday, January 2, 2013

  Actual Average Record
Temperature  
Mean Temperature 45 °F 50 °F  
Max Temperature 57 °F 58 °F 66 °F (1999)
Min Temperature 33 °F 42 °F 28 °F (1960)
Degree Days  
Heating Degree Days 20    
Month to date heating degree days 40  
Since 1 July heating degree days 806  
Cooling Degree Days 0    
Month to date cooling degree days 0  
Year to date cooling degree days 0  
Moisture  
Dew Point 34 °F    
Average Humidity 65    
Maximum Humidity 89    
Minimum Humidity 41    
Precipitation  
Precipitation 0.00 in 0.10 in 1.49 in (2006)
Month to date precipitation T 0.21  
Year to date precipitation T 0.21  
Since 1 July precipitation 7.77 5.26  
Sea Level Pressure  
Sea Level Pressure 30.21 in    
Wind  
Wind Speed 1 mph (NNW)    
Max Wind Speed 7 mph    
Max Gust Speed 9 mph    
Visibility 10 miles    
Events      
T = Trace of Precipitation, MM = Missing Value Source: NWS Daily Summary

Daily Weather History Graph

Daily Weather History Graph

Search for Another Location

Airport:

Trip Planner

Search our weather history database for the weather conditions in past years. The results will help you decide how hot, cold, wet, or windy it might be!

Date:

Astronomy

Jan. 02, 2013 Rise Set
Actual Time 7:22 AM PST 5:02 PM PST
Civil Twilight 6:53 AM PST 5:31 PM PST
Nautical Twilight 6:21 AM PST 6:03 PM PST
Astronomical Twilight 5:49 AM PST 6:35 PM PST
Moon 10:32 PM PST (1/2) 10:14 AM PST (1/2)
Length of Visible Light 10h 37m
Length of Day
9h 39m
Waning Gibbous, 74% of the Moon is Illuminated
Jan 2
Waning Gibbous
Jan 4
Last Quarter
Jan 11
New
Jan 18
First Quarter
Jan 26
Full

Hourly Weather History & Observations

Time (PST) Temp. Dew Point Humidity Pressure Visibility Wind Dir Wind Speed Gust Speed Precip Events Conditions
12:56 AM 37.0 °F 33.1 °F 86% 30.26 in 10.0 mi Calm Calm - N/A   Clear
1:56 AM 36.0 °F 32.0 °F 86% 30.25 in 10.0 mi Calm Calm - N/A   Clear
2:56 AM 37.0 °F 33.1 °F 86% 30.25 in 10.0 mi Calm Calm - N/A   Clear
3:56 AM 35.1 °F 30.9 °F 85% 30.24 in 10.0 mi Calm Calm - N/A   Clear
4:56 AM 34.0 °F 30.9 °F 89% 30.23 in 10.0 mi Calm Calm - N/A   Clear
5:56 AM 35.1 °F 30.9 °F 85% 30.23 in 10.0 mi Calm Calm - N/A   Clear
6:56 AM 35.1 °F 30.9 °F 85% 30.24 in 10.0 mi Calm Calm - N/A   Clear
7:56 AM 35.1 °F 32.0 °F 89% 30.25 in 10.0 mi Calm Calm - N/A   Clear
8:56 AM 39.0 °F 33.1 °F 79% 30.25 in 10.0 mi Calm Calm - N/A   Clear
9:56 AM 45.0 °F 34.0 °F 65% 30.27 in 10.0 mi Calm Calm - N/A   Clear
10:56 AM 48.9 °F 33.1 °F 54% 30.26 in 10.0 mi Calm Calm - N/A   Clear
11:56 AM 52.0 °F 33.1 °F 49% 30.23 in 10.0 mi Calm Calm - N/A   Clear
12:56 PM 53.1 °F 30.9 °F 43% 30.20 in 10.0 mi NW 3.5 mph - N/A   Clear
1:56 PM 57.0 °F 37.0 °F 47% 30.19 in 10.0 mi Calm Calm - N/A   Clear
2:56 PM 57.0 °F 37.0 °F 47% 30.17 in 10.0 mi NNW 4.6 mph - N/A   Clear
3:56 PM 57.0 °F 37.0 °F 47% 30.16 in 10.0 mi North 3.5 mph - N/A   Clear
4:56 PM 54.0 °F 36.0 °F 51% 30.15 in 10.0 mi WNW 3.5 mph - N/A   Clear
5:56 PM 50.0 °F 37.9 °F 63% 30.17 in 10.0 mi NNW 4.6 mph - N/A   Clear
6:56 PM 48.0 °F 39.9 °F 74% 30.18 in 10.0 mi Calm Calm - N/A   Clear
7:56 PM 46.0 °F 39.0 °F 76% 30.17 in 10.0 mi Calm Calm - N/A   Clear
8:56 PM 43.0 °F 36.0 °F 76% 30.18 in 10.0 mi Calm Calm - N/A   Clear
9:56 PM 39.9 °F 34.0 °F 79% 30.19 in 10.0 mi Calm Calm - N/A   Clear
10:56 PM 39.9 °F 34.0 °F 79% 30.19 in 10.0 mi Calm Calm - N/A   Clear
11:56 PM 37.9 °F 34.0 °F 86% 30.19 in 10.0 mi Calm Calm - N/A   Clear